Погода Чапаево

Поиск расширенной информации на нашем сайте:

Полезная информация:

Новости сайта



02.01.2020
Опубликован Долгосрочный прогноз погоды по городам России и ближнего зарубежья на январь 2020 года.
Карты: Прогноз на январь и февраль 2020 года, Сравнение прогнозируемой аномалии приземной температуры воздуха на январь 2020 года по разным моделям.




Погода Чапаево - сегодня

Время (UTC), дата Ветер
(°,м/с) 
Видим.   Явления Облачность Т
(°С)
Тd
(°С)
f(%) Тe
(°С)
Pmin
(гПа)
dP
(гПа)
Po
(мм)
O2
(г/м3)
Тmin Tmax R s Состояние
почвы
12 22.10.21 270 (З) 11{17}  20000 м    8/0 верхняя 
[Cc]
+17.3 +3.1 39 +16  1012.9  -0.8  758  287           
15 22.10.21 250 (З) 7{16}  н/о    4/0 верхняя 
[Cc]
+12.9 +2.3 48 +12  1013.6  0.7  759  292    +17.8       
18 22.10.21 250 (З) н/о    4/0 верхняя 
[Cc]
+10.1 -0.2 49 +9  1014.4  0.8  759  295    +17.8       
21 22.10.21 250 (З) н/о    6/0 верхняя 
[Cc]
+9.1 -2.4 44 +8  1014.8  0.4  760  297           
00 23.10.21 260 (З) н/о    6/0 верхняя 
[Cc]
+7 -1.6 54 +6  1015.4  0.6  760  299           
03 23.10.21 240 (ЮЗ) 20000 м    5/0 верхняя 
[Ci]
+4.7 -0.1 71 +4  1016.2  0.7             
06 23.10.21 260 (З) 20000 м    4/0 верхняя 
[Ci fib]
+11.1 +3.3 59 +11  1017.5  1.4  762  294  +4.7         
09 23.10.21 270 (З) 20000 м    8/0 средняя 
[Ac und]
+15.1 +6.4 56 +14  1017.5  762  290           
12 23.10.21 250 (З) 20000 м    8/0 средняя 
[Ac und]
+16.8 +2 37 +17  1017.2  -0.3  762  289           
15 23.10.21 220 (ЮЗ) н/о    10/0 средняя 
[Ac As]
+11.8 +7.2 73 +12  1017.4  0.2  762  293    +17.1       
18 23.10.21 200 (Ю) н/о    10/0 средняя 
[Ac As]
+10.1 +5.7 74 +10  1016.6  -0.8  761  295    +17.1       
21 23.10.21 210 (ЮЗ) н/о    10/0 средняя 
[Ac As]
+9.4 +7 85 +9  1015.3  -1.3  760  295           
00 24.10.21 240 (ЮЗ) н/о    10/0 средняя 
[Ac As]
+8.7 +7.2 90 +7  1014  -1.3  759  295           
03 24.10.21 270 (З) н/о    10/0 средняя 
[Ac As]
+8.8 +7.1 89 +8  1014  759  295           
06 24.10.21 270 (З) 10 км  слаб. дождь  10/10 600 м 
[Ns]
+9.6 +8.8 95 +9  1015.1  1.1  760  294  +8.5         
09 24.10.21 260 (З) 10 км  слаб. дождь  10/10 600 м 
[Ns]
+11.6 +10.6 94 +13  1015.8  0.7  761  292           
12 24.10.21 300 (СЗ) 20000 м  {дождь}  9/9 600 м 
[Sc]
+13 +8.8 76 +13  1016  0.2  761  291           
15 24.10.21 010 (С) н/о    9/9 600 м 
[Sc]
+9.6 +3.9 68 +10  1016.7  0.7  761  296    +13     
18 24.10.21 360 (С) н/о    8/3 600 м средняя 
[Sc|Ac trans]
+6 +1.2 71 +7  1016.9  0.1  761  300    +13     
21 24.10.21 340 (С) н/о    10/0 средняя 
[Ac As]
+4.8 +2.6 86 +6  1016.7  -0.2  761  301           
00 25.10.21 290 (З) н/о    10/0 средняя 
[Ac As]
+5.6 +2.7 82 +6  1016  -0.7  761  300           
03 25.10.21 300 (СЗ) н/о    8/3 600 м средняя 
[Sc|Ac trans]
+4.7 +2.5 86 +4  1015.7  -0.3             
06 25.10.21 320 (СЗ) 20000 м    4/0 средняя 
[Ac und]
+6.7 +2.3 73 +5  1016.5  0.9  761  299  +4.2         
09 25.10.21 320 (СЗ) 20000 м    6/6 600 м кучево-дожд., средняя 
[Cb calv|Ac cuf]
+9.3 +0.3 53 +8  1017.1  0.6  761  297           
12 25.10.21 350 (С) 20000 м    9/9 600 м 
[Cu Sc]
+7.1 +0.1 61 +5  1019  1.8  763  300           
Время (UTC), дата Ветер
(°,м/с) 
Видим.   Явления Облачность Т
(°С)
Тd
(°С)
f(%) Тe
(°С)
Pmin
(гПа)
dP
(гПа)
Po
(мм)
O2
(г/м3)
Тmin Tmax R s Состояние
почвы

Для получения пояснительной информации подведите курсор к названию столбца.

ПОГОДА Чапаево - архив

Всё, что Вы хотите узнать о погоде Чапаево - удобно и подробно!

Выберите нужную дату (начиная с 1 января 2019* года) и нажмите кнопку "Найти".
Будут отображены архивные сводки погоды по пункту Чапаево, начиная с указанной даты.


Отображать данные в формате CSV (для использования в таблицах Excel)


Внимание! Наш архив погоды предназначен исключительно для личного некоммерческого использования в познавательных целях. Если Вам необходимы официальные справки о состоянии погоды (для производственных, юридических, коммерческих и т.п. целей), обращайтесь в органы Росгидромета.

*Примечание: данная дата относится к архиву по метеостанциям СССР (Россия, СНГ, Балтия).
Архив по метеостанциям Зарубежной Европы и Азии (кроме Китая) хранится 10 дней, по другим регионам земного шара (Китай, Африка, Америка, Австралия, Океания) - 1 день.

Чапаево - район местоположения метеостанции


Название, широта, долгота, высота метеостанции:
Чапаево 50.2°ш. 51.2°д. 17 м над ур. моря [Казахстан]

Дополнительная информация

В oтличие oт бoльшинства пoгoдных сайтoв мы публикуем пoдрoбную метеoинфoрмацию в детальнoм прoфессиoнальнoм фoрмате.

Характеристики температуры и влажнoсти вoздуха измеряются на высoте 2 м в тени вдали oт зданий и деревьев.
Скoрoсть ветра измеряется на высoте 10 м (на урoвне рoста челoвека скoрoсть ветра ниже в 1.5-2 раза). Если метеoстанция нахoдится в гoрoде или в лесу, тo скoрoсть ветра занижена на 2-4 м/с пo сравнению с oткрытым местoм. Скoрoсть ветра над акватoриями крупных рек и oзёр, а также на вершинах хoлмoв на 2-5 м/с выше, чем в oбычных услoвиях.
Атмoсфернoе давление в разных тoчках местнoсти мoжет значительнo oтличаться oт давления на метеoстанции, в зависимoсти oт услoвий рельефа (при пoдъёме на 10 м давление пoнижается примернo на 1 мм рт.ст.).